Regional Weather Roundup
Issued by NWS Glasgow, MT

Home | Current Version | Previous Version | Text Only | Print | Product List | Glossary On
Versions: 1 2 3 4 5 6 7 8 9 10 11 12 13 14 15 16 17 18 19 20 21 22 23 24 25 26 27 28 29 30 31 32 33 34 35 36 37 38 39 40 41 42 43 44 45 46 47 48 49 50
000
ASUS45 KGGW 190715
RWRGGW
HOURLY REGIONAL WEATHER ROUNDUP FOR NORTHEAST MONTANA
NATIONAL WEATHER SERVICE GLASGOW MONTANA
1200 AM MST THU JAN 19 2017

NOTE: "FAIR" INDICATES FEW OR NO CLOUDS BELOW 12,000 FEET WITH NO
SIGNIFICANT WEATHER AND/OR OBSTRUCTIONS TO VISISBILITY.

NORTHEAST MONTANA


CITY           SKY/WX    TMP DP  RH WIND       PRES   REMARKS
GLASGOW        CLOUDY    27  22  81 SE13      29.50F
PLENTYWOOD       N/A     28  25  88 E3          N/A
WOLF POINT     CLOUDY    17  14  88 NW3       29.53F
JORDAN           N/A     26  21  81 CALM      29.51F
WINNETT          N/A     24  21  88 SW2         N/A
SIDNEY         CLOUDY    24  20  84 SW14      29.54F
GLENDIVE       CLOUDY    22  18  85 S5        29.54F
MALTA            N/A     28  28 100 NE1         N/A
SCOBEY           N/A     25  15  66 CALM      29.50F

FORT PECK REPORTS


CITY           SKY/WX    TMP DP  RH WIND       PRES   REMARKS
FORT PECK        N/A     33  27  78 SE12        N/A
THE PINES        N/A     34  26  72 W1          N/A

SOUTHEAST MONTANA


CITY           SKY/WX    TMP DP  RH WIND       PRES   REMARKS
BILLINGS       CLOUDY    36  20  52 SW18      29.55F
MILES CITY     CLOUDY    26  18  71 SE12      29.55F
BAKER          CLOUDY    18  11  74 CALM      29.57S
LIVINGSTON     CLOUDY    42  16  34 SW14G21   29.59F

CENTRAL MONTANA


CITY           SKY/WX    TMP DP  RH WIND       PRES   REMARKS
HAVRE          PTCLDY    33  29  85 W6        29.44F
LEWISTOWN      CLOUDY    43  28  55 SW6       29.49F
GREAT FALLS    CLOUDY    42  25  50 S14       29.48F
CUT BANK       CLOUDY    41  32  70 W9        29.40F
HELENA         CLOUDY    29  21  72 CALM      29.57S
BUTTE          CLOUDY    25  17  72 NE5       29.60F
BOZEMAN        CLOUDY    22  16  78 CALM      29.62S

WESTERN MONTANA


CITY           SKY/WX    TMP DP  RH WIND       PRES   REMARKS
MISSOULA       CLOUDY    28  26  92 N5        29.55F FOG
KALISPELL      NOT AVBL

NORTH DAKOTA


CITY           SKY/WX    TMP DP  RH WIND       PRES   REMARKS
WILLISTON      CLOUDY    25  21  85 S5        29.54F
DICKINSON      CLOUDY    33  20  58 W8        29.51F
MINOT          CLOUDY    33  25  72 SW10      29.50R
BISMARCK       CLOUDY    22  15  75 CALM      29.58F

SOUTHERN SASKATCHEWAN


CITY           SKY/WX    TMP DP  RH WIND       PRES   REMARKS
REGINA         CLEAR     34  28  80 S13       29.41F
ESTEVAN        CLEAR     27  23  86 SW14      29.49S
SWIFT CURRENT  PTCLDY    41  32  70 SW20G25   29.35R




USA.gov is the U.S. government's official web portal to all federal, state and local government web resources and services.